TimeEST,TemperatureF,Dew PointF,Humidity,Sea Level PressureIn,VisibilityMPH,Wind Direction,Wind SpeedMPH,Gust SpeedMPH,PrecipitationIn,Events,Conditions,WindDirDegrees,DateUTC
12:15 AM,43.5,42.8,97,30.19,10.0,Calm,Calm,-,N/A,,Clear,0,2012-11-20 05:15:00
12:35 AM,43.0,42.3,97,30.19,10.0,Calm,Calm,-,N/A,,Clear,0,2012-11-20 05:35:00
12:55 AM,41.9,41.4,98,30.19,10.0,Calm,Calm,-,N/A,,Clear,0,2012-11-20 05:55:00
1:15 AM,41.9,41.9,100,30.19,7.0,Calm,Calm,-,N/A,,Clear,0,2012-11-20 06:15:00
1:35 AM,42.1,42.1,100,30.18,7.0,Calm,Calm,-,N/A,,Clear,0,2012-11-20 06:35:00
1:55 AM,40.3,40.1,99,30.18,7.0,Calm,Calm,-,N/A,,Clear,0,2012-11-20 06:55:00
2:15 AM,39.7,39.7,100,30.18,5.0,Calm,Calm,-,N/A,,Clear,0,2012-11-20 07:15:00
2:35 AM,40.3,40.3,100,30.17,7.0,Calm,Calm,-,N/A,,Clear,0,2012-11-20 07:35:00
2:55 AM,40.6,40.6,100,30.17,5.0,Calm,Calm,-,N/A,,Clear,0,2012-11-20 07:55:00
3:15 AM,41.0,41.0,100,30.16,7.0,Calm,Calm,-,N/A,,Clear,0,2012-11-20 08:15:00
3:35 AM,40.3,40.3,100,30.16,5.0,Calm,Calm,-,N/A,,Clear,0,2012-11-20 08:35:00
6:22 AM,39.2,39.2,100,30.17,4.0,Calm,Calm,-,N/A,,Clear,0,2012-11-20 11:22:00
7:15 AM,41.2,41.2,100,30.16,4.0,Calm,Calm,-,N/A,,Clear,0,2012-11-20 12:15:00
7:35 AM,40.3,40.3,100,30.16,4.0,Calm,Calm,-,N/A,,Scattered Clouds,0,2012-11-20 12:35:00
7:55 AM,41.2,41.2,100,30.17,5.0,Calm,Calm,-,N/A,,Mostly Cloudy,0,2012-11-20 12:55:00
8:15 AM,42.1,42.1,100,30.17,5.0,Calm,Calm,-,N/A,,Mostly Cloudy,0,2012-11-20 13:15:00
8:35 AM,42.8,42.8,100,30.18,5.0,Calm,Calm,-,N/A,,Scattered Clouds,0,2012-11-20 13:35:00
8:55 AM,44.1,44.1,100,30.19,5.0,Calm,Calm,-,N/A,,Scattered Clouds,0,2012-11-20 13:55:00
9:15 AM,45.7,45.5,99,30.19,7.0,Calm,Calm,-,N/A,,Mostly Cloudy,0,2012-11-20 14:15:00
9:35 AM,47.3,45.5,93,30.19,10.0,Calm,Calm,-,N/A,,Overcast,0,2012-11-20 14:35:00
9:55 AM,48.2,45.7,91,30.18,10.0,Calm,Calm,-,N/A,,Scattered Clouds,0,2012-11-20 14:55:00
10:15 AM,49.5,45.7,87,30.19,10.0,Calm,Calm,-,N/A,,Mostly Cloudy,0,2012-11-20 15:15:00
10:35 AM,50.4,45.1,82,30.18,10.0,SW,4.6,-,N/A,,Overcast,220,2012-11-20 15:35:00
10:55 AM,52.0,45.7,79,30.18,10.0,WSW,5.8,-,N/A,,Mostly Cloudy,240,2012-11-20 15:55:00
11:15 AM,52.2,45.0,76,30.17,10.0,WSW,3.5,-,N/A,,Scattered Clouds,250,2012-11-20 16:15:00
11:35 AM,52.9,43.9,71,30.16,10.0,West,5.8,-,N/A,,Scattered Clouds,270,2012-11-20 16:35:00
12:15 PM,56.1,44.2,64,30.15,10.0,NW,5.8,-,N/A,,Clear,310,2012-11-20 17:15:00
12:35 PM,57.0,41.9,57,30.13,10.0,WNW,4.6,-,N/A,,Clear,290,2012-11-20 17:35:00
1:15 PM,57.7,39.9,51,30.11,10.0,Calm,Calm,-,N/A,,Clear,0,2012-11-20 18:15:00
1:35 PM,59.2,40.5,50,30.10,10.0,West,5.8,-,N/A,,Clear,280,2012-11-20 18:35:00
1:55 PM,59.5,38.7,46,30.09,10.0,West,6.9,-,N/A,,Clear,270,2012-11-20 18:55:00
2:15 PM,60.1,40.5,48,30.09,10.0,SW,6.9,-,N/A,,Clear,230,2012-11-20 19:15:00
2:35 PM,60.8,41.2,48,30.09,10.0,West,8.1,-,N/A,,Clear,270,2012-11-20 19:35:00
2:55 PM,60.6,40.3,47,30.08,10.0,WSW,4.6,-,N/A,,Clear,250,2012-11-20 19:55:00
3:15 PM,60.6,39.6,46,30.08,10.0,WSW,5.8,-,N/A,,Scattered Clouds,250,2012-11-20 20:15:00
3:35 PM,59.9,39.7,47,30.08,10.0,WSW,5.8,-,N/A,,Clear,240,2012-11-20 20:35:00
3:55 PM,59.9,38.8,46,30.08,10.0,West,4.6,-,N/A,,Clear,260,2012-11-20 20:55:00
4:15 PM,59.0,38.3,46,30.08,10.0,SW,6.9,-,N/A,,Clear,230,2012-11-20 21:15:00
4:35 PM,58.3,38.3,47,30.08,10.0,WSW,5.8,-,N/A,,Clear,250,2012-11-20 21:35:00
4:55 PM,57.0,38.5,50,30.08,10.0,WSW,5.8,-,N/A,,Clear,240,2012-11-20 21:55:00
5:15 PM,55.2,38.1,53,30.08,10.0,WSW,3.5,-,N/A,,Clear,250,2012-11-20 22:15:00
5:55 PM,53.8,37.4,54,30.09,10.0,Calm,Calm,-,N/A,,Clear,0,2012-11-20 22:55:00
6:15 PM,51.8,37.4,58,30.09,10.0,Calm,Calm,-,N/A,,Clear,0,2012-11-20 23:15:00
6:35 PM,49.1,37.4,64,30.10,10.0,Calm,Calm,-,N/A,,Clear,0,2012-11-20 23:35:00
6:55 PM,49.5,37.0,62,30.10,10.0,Calm,Calm,-,N/A,,Clear,0,2012-11-20 23:55:00
7:15 PM,47.1,36.7,67,30.10,10.0,Calm,Calm,-,N/A,,Clear,0,2012-11-21 00:15:00
7:55 PM,45.3,36.5,71,30.11,10.0,Calm,Calm,-,N/A,,Clear,0,2012-11-21 00:55:00
8:15 PM,43.7,36.5,76,30.11,10.0,Calm,Calm,-,N/A,,Clear,0,2012-11-21 01:15:00
8:35 PM,44.2,36.3,74,30.11,10.0,Calm,Calm,-,N/A,,Clear,0,2012-11-21 01:35:00
8:55 PM,43.2,36.0,76,30.11,10.0,Calm,Calm,-,N/A,,Clear,0,2012-11-21 01:55:00
9:15 PM,41.7,35.6,79,30.11,10.0,Calm,Calm,-,N/A,,Clear,0,2012-11-21 02:15:00
9:35 PM,42.6,36.1,78,30.12,10.0,Calm,Calm,-,N/A,,Clear,0,2012-11-21 02:35:00
9:55 PM,41.7,35.8,79,30.12,10.0,Calm,Calm,-,N/A,,Clear,0,2012-11-21 02:55:00
10:15 PM,39.7,35.4,85,30.12,10.0,Calm,Calm,-,N/A,,Clear,0,2012-11-21 03:15:00
10:35 PM,40.1,35.8,85,30.12,10.0,Calm,Calm,-,N/A,,Clear,0,2012-11-21 03:35:00
10:55 PM,40.5,36.0,84,30.13,10.0,ESE,3.5,-,N/A,,Clear,120,2012-11-21 03:55:00
11:15 PM,39.7,35.8,86,30.13,10.0,Calm,Calm,-,N/A,,Scattered Clouds,0,2012-11-21 04:15:00
11:35 PM,39.7,35.6,85,30.13,10.0,Calm,Calm,-,N/A,,Scattered Clouds,0,2012-11-21 04:35:00
11:55 PM,40.8,36.1,83,30.13,10.0,Calm,Calm,-,N/A,,Mostly Cloudy,0,2012-11-21 04:55:00